Regional Weather Roundup
Issued by NWS

Home | Current Version | Previous Version | Graphics & Text | Print | Product List | Glossary On
Versions: 1 2 3 4 5 6 7 8 9 10 11 12 13 14 15 16 17 18 19 20 21 22 23 24 25 26 27 28 29 30 31 32 33 34 35 36 37 38 39 40 41 42 43 44 45 46 47 48 49 50
659
ASUS44 KLIX 202105
RWRLA
LOUISIANA WEATHER ROUNDUP
NATIONAL WEATHER SERVICE NEW ORLEANS LA
400 PM CDT WED AUG 20 2014

NOTE: "FAIR" INDICATES FEW OR NO CLOUDS BELOW 12,000 FEET WITH NO
      SIGNIFICANT WEATHER AND/OR OBSTRUCTIONS TO VISIBILITY.
      SKY/WX - SKY CONDITION AND SIGNIFICANT WEATHER.
      TMP - AIR TEMPERATURE.    DP   - DEWPOINT TEMPERATURE.
      RH  - RELATIVE HUMIDITY.  PRES - PRESSURE.
      HX  - HEAT INDEX.         WCI  - WIND CHILL INDEX.

*  THESE STATIONS ARE NOT NWS OR FAA STATIONS AND ARE NOT UNDER
   NWS QUALITY CONTROL.

LAZ040-048-061>063-065-066-069-202200-
SOUTHEAST LOUISIANA

CITY           SKY/WX    TMP DP  RH WIND       PRES   REMARKS
N.O. AUDUBON     N/A    N/A N/A N/A MISG        N/A
N.O. INTL ARPT CLOUDY    85  73  67 S3        30.05S
N.O. LAKEFRONT CLOUDY    83  73  72 S10       30.06S
N.O. DOWNTOWN* MOCLDY    84  73  70 SE3       30.06F
SLIDELL        MOSUNNY   92  75  57 S13       30.03S HX 103
BATON ROUGE    CLOUDY    81  76  84 E12       30.05R THUNDER
BOOTHVILLE     MOSUNNY   90  77  65 S8        30.06S HX 103
BELLE CHASSE   CLOUDY    85  70  60 CALM      30.05S
BOGALUSA*        N/A     94  70  44 CALM      30.04F HX 100
GALLIANO*      NOT AVBL
NEW ROADS*     LGT RAIN  77  73  89 NE5       30.05R
GONZALES*      TSTM      77  76  98 S6        30.04F
HAMMOND*       PTSUNNY   84  75  74 SW6       30.07R
HOUMA*         SHOWER    77  70  78 N12       30.07R
PORT FOURCHON* CLEAR     90  75  62 S9        30.07S HX 100

$$

LAZ041-044-053-054-202200-
SOUTHWEST LOUISIANA

CITY           SKY/WX    TMP DP  RH WIND       PRES   REMARKS
LAKE CHARLES   CLOUDY    81  74  79 CALM      30.00F
LAFAYETTE      CLOUDY    81  74  79 S8G17     30.04R THUNDER
PATTERSON      MOSUNNY  N/A N/A N/A MISG        N/A
SALT POINT       N/A     92  78  63 VRB6      30.04R HX 107
NEW IBERIA     PTSUNNY   81  71  71 W9        30.04S THUNDER
CHENAULT AIRPK PTSUNNY   81  72  74 S5        30.02F

$$

LAZ027-028-202200-
CENTRAL LOUISIANA

CITY           SKY/WX    TMP DP  RH WIND       PRES   REMARKS
FORT POLK        N/A     90  73  58 S6        29.98F THUNDER HX  98
ALEXANDRIA INT MOSUNNY   95  72  47 SE9       29.97F HX 103
ALEXANDRIA     MOSUNNY   92  74  55 SE8       30.01S HX 101

$$

LAZ001-002-202200-
NORTHWEST LOUISIANA

CITY           SKY/WX    TMP DP  RH WIND       PRES   REMARKS
SHREVEPORT     MOSUNNY   94  70  45 SW8       29.97F HX 100
BARKSDALE AFB  SUNNY     96  67  38 S9        29.97F HX 100
DTN SHREVEPORT CLOUDY    92  69  47 SE7       29.97F HX  97

$$

LAZ014-016-202200-
NORTHEAST LOUISIANA

CITY           SKY/WX    TMP DP  RH WIND       PRES   REMARKS
MONROE         SUNNY     93  71  48 SE8       30.01F HX 100
TALLULAH       MOSUNNY   93  69  45 SE7       30.02F HX  98

$$




USA.gov is the U.S. government's official web portal to all federal, state and local government web resources and services.